Pecs, Hungary

6:11 PM CET on February 25, 2017 (GMT +0100)
Pecs

Weather History for LHPP - September, 2013

Change the Weather History Date:

Thursday, September 26, 2013

  Actual Average Record
Temperature  
Mean Temperature 66 °F -  
Max Temperature 75 °F 63 °F - ()
Min Temperature 56 °F 46 °F - ()
Growing Degree Days 16 (Base 50)    
Moisture  
Dew Point 54 °F    
Average Humidity 66    
Maximum Humidity 88    
Minimum Humidity 44    
Precipitation  
Precipitation 0.00 in 0.05 in - ()
Sea Level Pressure  
Sea Level Pressure 29.90 in    
Wind  
Wind Speed 8 mph ()    
Max Wind Speed 16 mph    
Max Gust Speed 28 mph    
Visibility 8.6 miles    
Events Rain    
T = Trace of Precipitation, MM = Missing Value Source: Averaged Metar Reports

Daily Weather History Graph

Daily Weather History Graph

Search for Another Location

Airport or City:

Trip Planner

Search our weather history database for the weather conditions in past years. The results will help you decide how hot, cold, wet, or windy it might be!

Date:

Astronomy

Sep. 26, 2013 Rise Set
Actual Time 6:39 AM CEST 6:36 PM CEST
Civil Twilight 6:09 AM CEST 7:06 PM CEST
Nautical Twilight 5:34 AM CEST 7:41 PM CEST
Astronomical Twilight 4:58 AM CEST 8:16 PM CEST
Moon 11:03 PM CEST (9/26) 1:34 PM CEST (9/26)
Length of Visible Light 12h 57m
Length of Day
11h 57m
Waning Gibbous, 57% of the Moon is Illuminated
Sep 26
Waning Gibbous
Sep 27
Last Quarter
Oct 5
New
Oct 12
First Quarter
Oct 19
Full

Hourly Weather History & Observations

Time (CEST) Temp. Dew Point Humidity Pressure Visibility Wind Dir Wind Speed Gust Speed Precip Events Conditions
12:45 AM 62.6 °F 55.4 °F 77% 29.95 in - SW 5.8 mph - N/A   Clear
1:45 AM 59.0 °F 55.4 °F 88% 29.95 in - SW 6.9 mph - N/A   Clear
2:00 AM 59 °F 55 °F 83% 29.94 in 19 mi SW 6.7 mph - -   Partly Cloudy
2:45 AM 59.0 °F 53.6 °F 82% 29.92 in - WSW 3.5 mph - N/A   Clear
3:45 AM 59.0 °F 53.6 °F 82% 29.92 in - WSW 4.6 mph - N/A   Clear
4:45 AM 57.2 °F 51.8 °F 82% 29.92 in - WSW 3.5 mph - N/A   Clear
5:45 AM 59.0 °F 51.8 °F 77% 29.92 in - WSW 4.6 mph - N/A   Clear
6:15 AM 57.2 °F 51.8 °F 82% 29.92 in - WSW 3.5 mph - N/A   Clear
6:45 AM 57.2 °F 51.8 °F 82% 29.89 in - West 6.9 mph - N/A   Clear
7:00 AM - - N/A% - - West 5.8 mph - N/A   Clear
7:15 AM 57.2 °F 51.8 °F 82% 29.89 in - West 8.1 mph - N/A   Clear
7:45 AM 59.0 °F 51.8 °F 77% 29.92 in - West 4.6 mph - N/A   Clear
8:00 AM 59 °F 52 °F 71% 29.90 in 19 mi West 4.5 mph - -   Partly Cloudy
8:15 AM 60.8 °F 51.8 °F 72% 29.92 in - West 9.2 mph - N/A   Clear
8:45 AM 62.6 °F 53.6 °F 72% 29.92 in - West 10.4 mph - N/A   Clear
9:15 AM 64.4 °F 53.6 °F 68% 29.92 in - West 10.4 mph - N/A   Clear
9:45 AM 64.4 °F 55.4 °F 73% 29.92 in - West 13.8 mph - N/A   Clear
10:00 AM - - N/A% - - West 13.8 mph 25.3 mph N/A   Dust Whirls
10:15 AM 66.2 °F 55.4 °F 68% 29.92 in - West 12.7 mph - N/A   Clear
10:45 AM 68.0 °F 55.4 °F 64% 29.92 in - West 9.2 mph - N/A   Clear
11:15 AM 68.0 °F 55.4 °F 64% 29.92 in - West 11.5 mph - N/A   Clear
11:45 AM 69.8 °F 55.4 °F 60% 29.89 in - West 12.7 mph - N/A   Clear
12:15 PM 71.6 °F 55.4 °F 57% 29.89 in - WSW 10.4 mph - N/A   Clear
12:45 PM 73.4 °F 55.4 °F 53% 29.89 in - West 12.7 mph - N/A   Clear
1:00 PM - - N/A% - - West 13.8 mph 25.3 mph N/A   Dust Whirls
1:15 PM 73.4 °F 55.4 °F 53% 29.89 in - West 16.1 mph - N/A   Clear
1:45 PM 73.4 °F 57.2 °F 57% 29.89 in - West 12.7 mph - N/A   Clear
2:00 PM 74 °F 56 °F 44% 29.86 in 25 mi West 13.4 mph - -   Partly Cloudy
2:15 PM 75.2 °F 55.4 °F 50% 29.86 in - West 15.0 mph - N/A   Clear
2:45 PM 75.2 °F 55.4 °F 50% 29.86 in - West 13.8 mph - N/A   Clear
3:15 PM 75.2 °F 57.2 °F 53% 29.86 in - West 11.5 mph - N/A   Clear
3:45 PM 75.2 °F 57.2 °F 53% 29.86 in - West 12.7 mph - N/A   Clear
4:00 PM - - N/A% - 6.2 mi West 11.5 mph - N/A   Mostly Cloudy
4:15 PM 75.2 °F 55.4 °F 50% 29.86 in - West 13.8 mph - N/A   Clear
4:45 PM 73.4 °F 55.4 °F 53% 29.86 in - West 13.8 mph - N/A   Clear
4:59 PM 73.4 °F 55.4 °F 53% 29.86 in - West 16.1 mph 27.6 mph N/A   Unknown
5:00 PM 73.4 °F 55.4 °F 53% 29.83 in - WNW 16.1 mph - N/A   Clear
5:15 PM 73.4 °F 55.4 °F 53% 29.86 in - WNW 12.7 mph - N/A   Clear
5:45 PM 71.6 °F 57.2 °F 60% 29.86 in - WNW 9.2 mph - N/A   Clear
6:15 PM 71.6 °F 57.2 °F 60% 29.89 in - WNW 8.1 mph - N/A   Clear
6:45 PM 69.8 °F 57.2 °F 64% 29.89 in 6.2 mi WNW 4.6 mph - N/A   Mostly Cloudy
7:15 PM 64.4 °F 55.4 °F 73% 29.92 in 6.2 mi North 12.7 mph - N/A Rain Light Rain
7:45 PM 64.4 °F 55.4 °F 73% 29.92 in 6.2 mi North 8.1 mph - N/A Rain Light Rain
8:00 PM 64 °F 54 °F 63% 29.91 in 12 mi North 8.9 mph - - Rain Light Rain
8:15 PM 62.6 °F 53.6 °F 72% 29.92 in 6.2 mi North 6.9 mph - N/A   Overcast
8:45 PM 62.6 °F 53.6 °F 72% 29.92 in 6.2 mi North 6.9 mph - N/A   Mostly Cloudy
9:15 PM 64.4 °F 50.0 °F 59% 29.95 in 6.2 mi North 12.7 mph 24.2 mph N/A   Mostly Cloudy
9:45 PM 66.2 °F 50.0 °F 56% 29.95 in 6.2 mi North 12.7 mph - N/A   Mostly Cloudy
10:45 PM 64.4 °F 50.0 °F 59% 29.95 in 6.2 mi North 11.5 mph - N/A   Mostly Cloudy
11:45 PM 62.6 °F 51.8 °F 68% 29.98 in 6.2 mi North 13.8 mph - N/A   Overcast